www.hobby-wetter-faasend.de
Wetterdaten: aktuell Mittwoch, 22.03.2017 23:00
Datum Zeit Temp. A. Temp. A. min Temp. A. max Feuchte A. Luftdruck Regen Wind Richtung Richtung Sonnenschein Taupunkt Windchill Windben
22.03.2017 23:00 6,3 C 6,3 C 6,3 C 86 % 1012,8 hPa 0,0 l/m 0,8 km/h (0 Bft) O-NO 67 0 min 4,1 C 6,3 C 8,0 km/h (2 Bft)
22.03.2017 22:45 6,3 C 6,3 C 6,4 C 86 % 1012,7 hPa 0,0 l/m 0,4 km/h (0 Bft) O 82 0 min 4,1 C 6,3 C 4,8 km/h (1 Bft)
22.03.2017 22:30 6,3 C 6,2 C 6,3 C 86 % 1012,8 hPa 0,0 l/m 1,0 km/h (0 Bft) O-SO 105 0 min 4,1 C 6,3 C 6,4 km/h (2 Bft)
22.03.2017 22:15 6,3 C 6,2 C 6,3 C 87 % 1012,8 hPa 0,0 l/m 0,5 km/h (0 Bft) O 91 0 min 4,3 C 6,3 C 4,8 km/h (1 Bft)
22.03.2017 22:00 6,2 C 6,1 C 6,2 C 87 % 1013,1 hPa 0,0 l/m 0,2 km/h (0 Bft) SO 139 0 min 4,2 C 6,2 C 3,2 km/h (1 Bft)
22.03.2017 21:45 6,1 C 6,1 C 6,2 C 86 % 1013,1 hPa 0,0 l/m 0,3 km/h (0 Bft) SO 138 0 min 3,9 C 6,1 C 3,2 km/h (1 Bft)
22.03.2017 21:30 6,2 C 6,2 C 6,3 C 86 % 1012,8 hPa 0,0 l/m 0,0 km/h (0 Bft) SO 130 0 min 4,0 C 6,2 C 1,6 km/h (1 Bft)
22.03.2017 21:15 6,3 C 6,3 C 6,3 C 86 % 1012,7 hPa 0,0 l/m 0,2 km/h (0 Bft) SO 130 0 min 4,1 C 6,3 C 3,2 km/h (1 Bft)
22.03.2017 21:00 6,3 C 6,3 C 6,6 C 85 % 1012,6 hPa 0,0 l/m 0,2 km/h (0 Bft) SO 130 0 min 4,0 C 6,3 C 3,2 km/h (1 Bft)
22.03.2017 20:45 6,6 C 6,6 C 6,8 C 84 % 1012,3 hPa 0,0 l/m 0,0 km/h (0 Bft) SO 130 0 min 4,1 C 6,6 C 0,0 km/h (0 Bft)
22.03.2017 20:30 6,7 C 6,7 C 6,9 C 83 % 1012,4 hPa 0,0 l/m 0,0 km/h (0 Bft) SO 130 0 min 4,0 C 6,7 C 0,0 km/h (0 Bft)
22.03.2017 20:15 6,9 C 6,9 C 7,2 C 82 % 1012,5 hPa 0,0 l/m 0,1 km/h (0 Bft) SO 130 0 min 4,0 C 6,9 C 1,6 km/h (1 Bft)
22.03.2017 20:00 7,2 C 7,2 C 7,4 C 81 % 1012,4 hPa 0,0 l/m 0,1 km/h (0 Bft) SO 130 0 min 4,2 C 7,2 C 4,8 km/h (1 Bft)
22.03.2017 19:45 7,4 C 7,4 C 7,6 C 81 % 1012,4 hPa 0,0 l/m 0,0 km/h (0 Bft) SO 130 0 min 4,4 C 7,4 C 0,0 km/h (0 Bft)
22.03.2017 19:30 7,6 C 7,6 C 7,8 C 80 % 1012,4 hPa 0,0 l/m 0,0 km/h (0 Bft) SO 130 0 min 4,4 C 7,6 C 1,6 km/h (1 Bft)
22.03.2017 19:15 7,8 C 7,8 C 7,9 C 79 % 1012,4 hPa 0,0 l/m 0,3 km/h (0 Bft) SO 130 0 min 4,4 C 7,8 C 4,8 km/h (1 Bft)
22.03.2017 19:00 7,9 C 7,9 C 8,1 C 78 % 1012,5 hPa 0,0 l/m 0,6 km/h (0 Bft) S 180 0 min 4,3 C 7,9 C 8,0 km/h (2 Bft)
22.03.2017 18:45 8,1 C 8,1 C 8,3 C 78 % 1012,5 hPa 0,0 l/m 0,7 km/h (0 Bft) S 185 0 min 4,5 C 8,1 C 6,4 km/h (2 Bft)
22.03.2017 18:30 8,3 C 8,3 C 8,4 C 77 % 1012,6 hPa 0,0 l/m 0,2 km/h (0 Bft) O-SO 123 0 min 4,5 C 8,3 C 3,2 km/h (1 Bft)
22.03.2017 18:15 8,4 C 8,4 C 8,4 C 77 % 1012,5 hPa 0,0 l/m 0,4 km/h (0 Bft) S 179 0 min 4,6 C 8,4 C 4,8 km/h (1 Bft)
22.03.2017 18:00 8,4 C 8,4 C 8,5 C 76 % 1012,5 hPa 0,0 l/m 1,0 km/h (0 Bft) SO 144 0 min 4,4 C 8,4 C 11,3 km/h (2 Bft)
22.03.2017 17:45 8,5 C 8,5 C 8,6 C 75 % 1012,5 hPa 0,0 l/m 1,6 km/h (1 Bft) S-SO 165 0 min 4,3 C 8,5 C 9,7 km/h (2 Bft)
22.03.2017 17:30 8,6 C 8,6 C 8,7 C 75 % 1012,5 hPa 0,0 l/m 2,6 km/h (1 Bft) S-SO 161 0 min 4,4 C 8,6 C 12,9 km/h (3 Bft)
22.03.2017 17:15 8,6 C 8,6 C 8,7 C 76 % 1012,5 hPa 0,0 l/m 1,4 km/h (1 Bft) S-SW 211 0 min 4,6 C 8,6 C 9,7 km/h (2 Bft)
22.03.2017 17:00 8,6 C 8,5 C 8,6 C 76 % 1012,5 hPa 0,0 l/m 1,7 km/h (1 Bft) O 93 0 min 4,6 C 8,6 C 9,7 km/h (2 Bft)
22.03.2017 16:45 8,5 C 8,5 C 8,6 C 76 % 1012,6 hPa 0,0 l/m 1,2 km/h (1 Bft) S-SO 159 0 min 4,5 C 8,5 C 9,7 km/h (2 Bft)
22.03.2017 16:30 8,6 C 8,5 C 8,7 C 76 % 1012,6 hPa 0,0 l/m 1,6 km/h (1 Bft) SO 145 0 min 4,6 C 8,6 C 9,7 km/h (2 Bft)
22.03.2017 16:15 8,7 C 8,6 C 8,7 C 76 % 1012,7 hPa 0,0 l/m 2,0 km/h (1 Bft) S-SO 153 0 min 4,7 C 8,7 C 12,9 km/h (3 Bft)
22.03.2017 16:00 8,6 C 8,3 C 8,6 C 78 % 1012,7 hPa 0,0 l/m 1,6 km/h (1 Bft) SO 136 0 min 5,0 C 8,6 C 8,0 km/h (2 Bft)
22.03.2017 15:45 8,3 C 8,3 C 8,3 C 78 % 1012,8 hPa 0,0 l/m 1,8 km/h (1 Bft) S 184 0 min 4,7 C 8,3 C 9,7 km/h (2 Bft)
22.03.2017 15:30 8,3 C 8,3 C 8,3 C 78 % 1012,9 hPa 0,0 l/m 2,4 km/h (1 Bft) SO 131 0 min 4,7 C 8,3 C 11,3 km/h (2 Bft)
22.03.2017 15:15 8,3 C 8,3 C 8,4 C 78 % 1012,8 hPa 0,0 l/m 1,1 km/h (1 Bft) O 98 0 min 4,7 C 8,3 C 9,7 km/h (2 Bft)
22.03.2017 15:00 8,4 C 8,4 C 8,4 C 79 % 1013,0 hPa 0,0 l/m 1,1 km/h (1 Bft) O-SO 103 0 min 5,0 C 8,4 C 9,7 km/h (2 Bft)
22.03.2017 14:45 8,4 C 8,3 C 8,4 C 78 % 1012,9 hPa 0,0 l/m 1,2 km/h (1 Bft) S-SW 192 0 min 4,8 C 8,4 C 8,0 km/h (2 Bft)
22.03.2017 14:30 8,4 C 8,4 C 8,6 C 78 % 1012,9 hPa 0,0 l/m 3,3 km/h (1 Bft) S-SO 164 0 min 4,8 C 8,4 C 14,5 km/h (3 Bft)
22.03.2017 14:15 8,6 C 8,5 C 8,6 C 77 % 1013,0 hPa 0,0 l/m 1,5 km/h (1 Bft) O-SO 107 0 min 4,8 C 8,6 C 8,0 km/h (2 Bft)
22.03.2017 14:00 8,6 C 8,2 C 8,6 C 78 % 1013,1 hPa 0,0 l/m 1,2 km/h (1 Bft) NO 55 0 min 5,0 C 8,6 C 8,0 km/h (2 Bft)
22.03.2017 13:45 8,2 C 7,9 C 8,2 C 79 % 1013,1 hPa 0,0 l/m 1,4 km/h (1 Bft) SO 145 0 min 4,8 C 8,2 C 8,0 km/h (2 Bft)
22.03.2017 13:30 7,9 C 7,9 C 8,0 C 79 % 1013,2 hPa 0,0 l/m 1,3 km/h (1 Bft) O-NO 73 0 min 4,5 C 7,9 C 6,4 km/h (2 Bft)
22.03.2017 13:15 7,9 C 7,7 C 7,9 C 80 % 1013,4 hPa 0,0 l/m 2,2 km/h (1 Bft) S-SO 165 0 min 4,7 C 7,9 C 9,7 km/h (2 Bft)
22.03.2017 13:00 7,7 C 7,2 C 7,7 C 81 % 1013,5 hPa 0,0 l/m 2,6 km/h (1 Bft) O-NO 69 0 min 4,7 C 7,7 C 11,3 km/h (2 Bft)
22.03.2017 12:45 7,2 C 6,8 C 7,2 C 83 % 1013,5 hPa 0,0 l/m 1,6 km/h (1 Bft) NO 47 0 min 4,5 C 7,2 C 8,0 km/h (2 Bft)
22.03.2017 12:30 6,9 C 6,7 C 6,9 C 84 % 1013,7 hPa 0,0 l/m 1,3 km/h (1 Bft) O-NO 66 0 min 4,4 C 6,9 C 6,4 km/h (2 Bft)
22.03.2017 12:15 6,7 C 6,6 C 6,7 C 84 % 1013,9 hPa 0,0 l/m 1,6 km/h (1 Bft) O 90 0 min 4,2 C 6,7 C 8,0 km/h (2 Bft)
22.03.2017 12:00 6,6 C 6,4 C 6,6 C 85 % 1014,0 hPa 0,0 l/m 0,4 km/h (0 Bft) O-SO 118 0 min 4,3 C 6,6 C 4,8 km/h (1 Bft)
22.03.2017 11:45 6,4 C 6,3 C 6,4 C 85 % 1014,1 hPa 0,0 l/m 1,4 km/h (1 Bft) S 182 0 min 4,1 C 6,4 C 6,4 km/h (2 Bft)
22.03.2017 11:30 6,3 C 6,2 C 6,3 C 86 % 1014,2 hPa 0,0 l/m 0,7 km/h (0 Bft) O-SO 113 0 min 4,1 C 6,3 C 4,8 km/h (1 Bft)
22.03.2017 11:15 6,2 C 6,1 C 6,2 C 86 % 1014,3 hPa 0,0 l/m 1,1 km/h (1 Bft) O 80 0 min 4,0 C 6,2 C 6,4 km/h (2 Bft)
22.03.2017 11:00 6,1 C 6,0 C 6,1 C 86 % 1014,4 hPa 0,0 l/m 1,7 km/h (1 Bft) O-SO 109 0 min 3,9 C 6,1 C 9,7 km/h (2 Bft)
22.03.2017 10:45 6,0 C 5,9 C 6,0 C 87 % 1014,4 hPa 0,0 l/m 1,4 km/h (1 Bft) O 91 0 min 4,0 C 6,0 C 6,4 km/h (2 Bft)
22.03.2017 10:30 5,9 C 5,9 C 5,9 C 88 % 1014,5 hPa 0,0 l/m 1,2 km/h (1 Bft) O 99 0 min 4,1 C 5,9 C 8,0 km/h (2 Bft)
22.03.2017 10:15 5,9 C 5,9 C 5,9 C 90 % 1014,5 hPa 0,0 l/m 0,5 km/h (0 Bft) O-SO 123 0 min 4,4 C 5,9 C 4,8 km/h (1 Bft)
22.03.2017 10:00 5,9 C 5,3 C 5,9 C 90 % 1014,4 hPa 0,0 l/m 1,8 km/h (1 Bft) O 82 0 min 4,4 C 5,9 C 8,0 km/h (2 Bft)
22.03.2017 09:45 5,3 C 5,2 C 5,4 C 93 % 1014,5 hPa 0,0 l/m 2,1 km/h (1 Bft) O-NO 70 0 min 4,3 C 5,3 C 8,0 km/h (2 Bft)
22.03.2017 09:30 5,2 C 5,1 C 5,2 C 94 % 1014,6 hPa 0,0 l/m 0,7 km/h (0 Bft) O-NO 59 0 min 4,3 C 5,2 C 4,8 km/h (1 Bft)
22.03.2017 09:15 5,1 C 4,9 C 5,1 C 94 % 1014,6 hPa 0,0 l/m 1,1 km/h (1 Bft) SO 134 0 min 4,2 C 5,1 C 4,8 km/h (1 Bft)
22.03.2017 09:00 4,9 C 4,8 C 4,9 C 94 % 1014,4 hPa 0,0 l/m 1,1 km/h (1 Bft) O-SO 105 0 min 4,0 C 4,9 C 4,8 km/h (1 Bft)
22.03.2017 08:45 4,8 C 4,7 C 4,8 C 95 % 1014,3 hPa 0,0 l/m 0,7 km/h (0 Bft) SO 134 0 min 4,1 C 4,8 C 6,4 km/h (2 Bft)
22.03.2017 08:30 4,7 C 4,7 C 4,7 C 95 % 1014,3 hPa 0,0 l/m 0,0 km/h (0 Bft) S 175 0 min 4,0 C 4,7 C 0,0 km/h (0 Bft)
22.03.2017 08:15 4,7 C 4,6 C 4,7 C 95 % 1014,3 hPa 0,0 l/m 0,0 km/h (0 Bft) S 175 0 min 4,0 C 4,7 C 1,6 km/h (1 Bft)
22.03.2017 08:00 4,6 C 4,4 C 4,6 C 95 % 1014,2 hPa 0,0 l/m 0,0 km/h (0 Bft) S 175 0 min 3,9 C 4,6 C 0,0 km/h (0 Bft)
22.03.2017 07:45 4,5 C 4,4 C 4,5 C 95 % 1014,3 hPa 0,0 l/m 0,0 km/h (0 Bft) S 175 0 min 3,8 C 4,5 C 0,0 km/h (0 Bft)
22.03.2017 07:30 4,4 C 4,4 C 4,5 C 95 % 1014,3 hPa 0,0 l/m 0,0 km/h (0 Bft) S 175 0 min 3,7 C 4,4 C 0,0 km/h (0 Bft)
22.03.2017 07:16 4,5 C 4,5 C 4,5 C 95 % 1014,2 hPa 0,0 l/m 0,0 km/h (0 Bft) S 175 0 min 3,8 C 4,5 C 0,0 km/h (0 Bft)
22.03.2017 07:00 4,5 C 4,5 C 4,6 C 95 % 1014,1 hPa 0,0 l/m 0,0 km/h (0 Bft) S 175 0 min 3,8 C 4,5 C 0,0 km/h (0 Bft)
22.03.2017 06:45 4,5 C 4,5 C 4,6 C 95 % 1014,1 hPa 0,0 l/m 0,0 km/h (0 Bft) S 175 0 min 3,8 C 4,5 C 0,0 km/h (0 Bft)
22.03.2017 06:30 4,6 C 4,6 C 4,6 C 94 % 1014,2 hPa 0,0 l/m 0,0 km/h (0 Bft) S 175 0 min 3,7 C 4,6 C 0,0 km/h (0 Bft)
22.03.2017 06:15 4,6 C 4,6 C 4,6 C 94 % 1014,2 hPa 0,0 l/m 0,0 km/h (0 Bft) S 175 0 min 3,7 C 4,6 C 0,0 km/h (0 Bft)
22.03.2017 06:00 4,6 C 4,6 C 4,7 C 94 % 1014,3 hPa 0,0 l/m 0,0 km/h (0 Bft) S 175 0 min 3,7 C 4,6 C 1,6 km/h (1 Bft)
22.03.2017 05:45 4,7 C 4,7 C 4,7 C 94 % 1014,3 hPa 0,0 l/m 0,3 km/h (0 Bft) S 175 0 min 3,8 C 4,7 C 3,2 km/h (1 Bft)
22.03.2017 05:30 4,7 C 4,7 C 4,7 C 94 % 1014,2 hPa 0,0 l/m 0,0 km/h (0 Bft) S 175 0 min 3,8 C 4,7 C 0,0 km/h (0 Bft)
22.03.2017 05:15 4,7 C 4,7 C 4,7 C 94 % 1014,3 hPa 0,0 l/m 0,0 km/h (0 Bft) S 175 0 min 3,8 C 4,7 C 1,6 km/h (1 Bft)
22.03.2017 05:00 4,7 C 4,7 C 4,7 C 94 % 1014,4 hPa 0,0 l/m 0,0 km/h (0 Bft) S 175 0 min 3,8 C 4,7 C 1,6 km/h (1 Bft)
22.03.2017 04:45 4,7 C 4,7 C 4,8 C 94 % 1014,4 hPa 0,0 l/m 0,0 km/h (0 Bft) S 175 0 min 3,8 C 4,7 C 0,0 km/h (0 Bft)
22.03.2017 04:30 4,8 C 4,8 C 4,8 C 94 % 1014,4 hPa 0,0 l/m 0,0 km/h (0 Bft) S 175 0 min 3,9 C 4,8 C 1,6 km/h (1 Bft)
22.03.2017 04:16 4,8 C 4,8 C 4,9 C 94 % 1014,3 hPa 0,0 l/m 0,2 km/h (0 Bft) S 175 0 min 3,9 C 4,8 C 3,2 km/h (1 Bft)
22.03.2017 04:00 4,9 C 4,9 C 5,0 C 94 % 1014,3 hPa 0,0 l/m 0,6 km/h (0 Bft) S 175 0 min 4,0 C 4,9 C 4,8 km/h (1 Bft)
22.03.2017 03:45 5,0 C 5,0 C 5,1 C 94 % 1014,3 hPa 0,2 l/m 1,3 km/h (1 Bft) S 176 0 min 4,1 C 5,0 C 8,0 km/h (2 Bft)
22.03.2017 03:30 5,1 C 5,1 C 5,2 C 94 % 1014,4 hPa 0,0 l/m 0,7 km/h (0 Bft) S-SW 194 0 min 4,2 C 5,1 C 4,8 km/h (1 Bft)
22.03.2017 03:16 5,2 C 5,1 C 5,2 C 94 % 1014,3 hPa 0,0 l/m 1,1 km/h (1 Bft) S-SW 196 0 min 4,3 C 5,2 C 6,4 km/h (2 Bft)
22.03.2017 03:00 5,2 C 5,2 C 5,2 C 94 % 1014,4 hPa 0,0 l/m 0,4 km/h (0 Bft) SW 229 0 min 4,3 C 5,2 C 3,2 km/h (1 Bft)
22.03.2017 02:45 5,2 C 5,2 C 5,2 C 94 % 1014,2 hPa 0,0 l/m 0,0 km/h (0 Bft) SW 229 0 min 4,3 C 5,2 C 0,0 km/h (0 Bft)
22.03.2017 02:30 5,2 C 5,2 C 5,3 C 94 % 1014,3 hPa 0,0 l/m 0,1 km/h (0 Bft) SW 229 0 min 4,3 C 5,2 C 1,6 km/h (1 Bft)
22.03.2017 02:15 5,3 C 5,2 C 5,3 C 94 % 1014,4 hPa 0,0 l/m 0,1 km/h (0 Bft) SW 229 0 min 4,4 C 5,3 C 3,2 km/h (1 Bft)
22.03.2017 02:00 5,3 C 5,3 C 5,3 C 94 % 1014,4 hPa 0,0 l/m 0,3 km/h (0 Bft) SW 231 0 min 4,4 C 5,3 C 3,2 km/h (1 Bft)
22.03.2017 01:45 5,3 C 5,3 C 5,4 C 94 % 1014,5 hPa 0,0 l/m 0,0 km/h (0 Bft) SW 231 0 min 4,4 C 5,3 C 0,0 km/h (0 Bft)
22.03.2017 01:30 5,4 C 5,3 C 5,4 C 94 % 1014,5 hPa 0,2 l/m 0,0 km/h (0 Bft) SW 231 0 min 4,5 C 5,4 C 1,6 km/h (1 Bft)
22.03.2017 01:16 5,4 C 5,4 C 5,4 C 94 % 1014,5 hPa 0,0 l/m 0,1 km/h (0 Bft) SW 231 0 min 4,5 C 5,4 C 3,2 km/h (1 Bft)
22.03.2017 01:00 5,4 C 5,4 C 5,5 C 94 % 1014,6 hPa 0,0 l/m 1,0 km/h (0 Bft) SW 231 0 min 4,5 C 5,4 C 4,8 km/h (1 Bft)
22.03.2017 00:45 5,5 C 5,5 C 5,6 C 94 % 1014,6 hPa 0,0 l/m 0,3 km/h (0 Bft) S-SO 168 0 min 4,6 C 5,5 C 3,2 km/h (1 Bft)
22.03.2017 00:30 5,5 C 5,5 C 5,6 C 94 % 1014,8 hPa 0,2 l/m 0,1 km/h (0 Bft) S-SO 168 0 min 4,6 C 5,5 C 3,2 km/h (1 Bft)
22.03.2017 00:15 5,6 C 5,6 C 5,6 C 94 % 1014,9 hPa 0,0 l/m 0,2 km/h (0 Bft) S-SO 168 0 min 4,7 C 5,6 C 3,2 km/h (1 Bft)
22.03.2017 00:00 5,6 C 5,6 C 5,6 C 94 % 1015,0 hPa 0,0 l/m 0,1 km/h (0 Bft) S-SO 168 0 min 4,7 C 5,6 C 1,6 km/h (1 Bft)
_ Min-Zeit 07:30 07:30 07:16 17:30 20:45 - 01:30 - - - 07:30 07:30 01:45
Minimum _ 4,4 C 4,4 C 4,5 C 75 % 1012,3 hPa - 0,0 km/h (0 Bft) - - - 3,7 C 4,4 C 0,0 km/h (0 Bft)
_ Max-Zeit 16:15 16:15 16:15 06:45 00:00 00:30 14:30 - - 00:00 14:00 16:15 14:30
Maximum _ 8,7 C 8,6 C 8,7 C 95 % 1015,0 hPa 0,2 l/m 3,3 km/h
S-SO (1 Bft)
- - 0 min 5,0 C 8,7 C 14,5 km/h
S-SO (3 Bft)
Durchschnitt _ 6,3 C 6,3 C 6,4 C 87 % 1013,6 hPa #0,6 l/m 0,7 km/h (0 Bft) O - #0 min. 4,3 C 6,3 C 5,0 km/h (1 Bft)